Wind_Speed
5 6 7 8 9 9 10 10 10 10 10 10 10 9 8 7 5 3 1 3 5 8 10 13 15 16 17 19 19 19 19 18 17 16 15 14 12 12 11 10 10 10 9
3 3 4 5 6 7 8 8 9 9 9 9 9 8 8 7 6 5 3 1 2 5 7 10 12 14 15 17 18 18 19 19 18 17 17 16 15 14 14 13 12 11 10
1 1 2 2 3 4 5 6 6 6 7 7 7 7 7 7 6 6 4 3 1 2 4 7 9 11 13 15 16 17 18 18 18 18 18 17 16 15 15 14 12 11 10
1 2 2 2 2 2 3 3 3 4 4 5 5 6 6 6 6 6 5 4 3 1 2 4 5 7 10 11 12 13 14 15 16 16 16 15 15 15 14 13 11 10 9
2 3 4 4 4 3 3 2 2 1 1 2 3 3 3 4 4 5 5 5 4 3 1 1 3 5 6 6 8 9 11 11 11 12 11 11 11 11 11 11 10 9 8
4 4 5 6 6 6 6 6 5 3 2 2 2 2 2 2 2 3 3 4 4 4 3 2 1 2 3 4 5 6 7 7 7 7 6 6 6 6 7 7 6 6 5
5 6 6 7 8 9 9 9 9 8 7 6 5 4 4 3 2 2 1 2 3 4 4 4 3 2 2 3 4 5 6 5 5 5 4 3 3 3 3 3 3 3 3
7 8 9 9 10 11 12 12 12 12 11 10 9 8 7 7 6 4 3 2 0 2 2 3 3 3 4 4 5 6 6 5 5 5 5 5 4 4 3 3 3 3 3
10 10 11 12 13 14 15 15 15 15 15 14 13 12 11 10 9 8 7 5 4 2 1 1 2 3 4 5 6 6 6 6 6 6 6 6 6 5 5 5 5 5 5
13 14 14 15 16 16 18 18 18 18 18 17 16 15 14 13 12 11 11 9 8 6 5 4 3 3 3 4 5 6 6 6 6 6 7 7 6 6 6 6 6 6 6
16 16 17 18 18 19 20 20 21 21 20 20 20 18 17 17 16 15 14 13 12 11 9 8 7 5 4 4 5 5 5 5 5 6 6 6 6 6 6 6 6 6 6
22 21 21 21 22 22 23 23 22 22 22 22 21 21 20 20 19 19 18 16 16 15 13 12 11 9 8 7 6 6 6 5 4 5 5 5 5 5 6 6 6 6 6
27 27 28 27 26 26 26 26 25 24 24 23 23 23 23 23 22 22 22 21 20 19 18 16 15 13 12 11 10 9 8 7 6 5 5 5 4 4 4 4 4 4 5
32 32 33 33 32 32 31 30 29 27 26 26 26 25 25 26 25 25 25 24 24 24 22 21 19 18 16 14 13 12 11 10 9 8 7 6 5 4 4 4 4 3 3
35 35 36 37 37 36 36 35 34 32 31 30 28 27 27 27 26 26 27 26 26 27 26 25 23 21 20 19 17 16 15 14 13 11 10 9 8 7 6 5 4 3 3
36 36 37 38 39 39 39 39 38 37 36 36 34 32 30 29 29 28 27 26 27 28 29 28 26 25 24 22 21 20 19 18 17 16 14 13 12 10 9 8 7 6 4
35 36 37 37 38 38 39 40 40 39 39 38 38 37 36 35 33 32 30 29 29 29 30 30 30 29 27 26 24 23 22 21 21 20 19 17 15 14 13 12 11 9 8
33 34 35 35 35 36 37 38 39 39 39 39 40 40 39 38 37 35 33 32 31 30 30 31 32 32 30 28 27 26 25 24 24 24 23 21 20 18 16 15 14 13 11
32 33 34 34 34 34 35 35 36 37 38 38 39 40 40 40 40 39 37 35 33 32 32 32 32 32 31 31 30 29 28 28 28 27 26 25 23 22 20 19 17 16 15
31 32 32 34 35 35 36 36 37 37 38 38 37 38 39 39 40 40 40 39 37 35 34 34 33 33 33 32 32 32 31 30 30 29 29 28 26 25 23 22 21 19 18
29 30 30 31 32 32 33 34 35 37 38 38 38 37 38 38 39 40 40 40 40 39 37 35 34 34 33 33 33 33 32 32 32 31 30 29 28 27 26 24 23 22 21
27 27 26 26 27 28 30 31 32 34 35 35 36 37 38 38 38 39 40 40 41 40 39 38 37 36 33 32 32 32 33 32 33 33 31 30 29 29 28 26 25 24 23
23 23 22 23 23 24 25 26 27 29 31 32 33 33 34 36 37 38 39 40 41 41 41 41 39 39 36 34 33 33 33 33 32 33 32 31 30 29 29 28 26 25 24
19 18 18 18 19 19 20 21 22 23 25 27 29 31 33 34 35 37 38 40 41 42 42 42 43 41 39 37 35 34 34 34 34 34 34 33 31 30 29 29 28 27 26
16 16 15 15 16 17 17 17 18 19 20 22 25 28 31 32 34 36 37 39 41 41 42 42 43 43 42 40 38 36 36 35 35 35 35 35 34 32 30 30 29 28 27
16 16 16 16 16 16 16 15 15 15 16 18 19 21 24 27 30 33 35 36 39 40 41 42 43 43 42 42 40 39 37 35 36 37 38 38 36 35 33 32 31 30 28
Wind_Direction
95 92 88 83 79 77 76 73 70 67 64 62 61 60 61 63 66 75 115 195 210 219 223 224 224 226 230 231 232 234 236 238 243 247 253 260 264 268 273 280 287 295 301
108 107 102 93 86 83 81 76 72 69 65 62 61 59 58 59 60 62 64 103 215 222 225 225 226 229 233 232 234 235 237 239 243 247 252 258 262 264 269 275 280 285 290
171 164 143 121 106 99 95 87 77 69 64 60 58 58 57 57 58 59 56 49 14 243 237 233 233 235 236 236 235 236 238 240 243 247 253 257 258 260 265 272 276 280 282
265 251 234 213 181 148 130 114 93 75 64 55 52 52 53 53 53 54 54 50 39 357 259 240 234 235 235 234 232 233 234 238 244 248 252 254 255 256 260 267 271 271 272
276 269 263 255 244 234 221 202 176 119 60 41 35 34 37 42 46 48 50 52 50 46 29 245 230 226 228 226 223 223 226 231 238 241 247 250 253 253 255 260 265 263 259
272 267 266 265 260 254 250 246 244 244 254 279 304 322 337 355 18 31 41 49 53 55 53 59 123 193 201 197 195 198 203 210 221 228 236 237 240 244 246 251 254 250 245
282 274 266 262 260 259 256 254 253 253 254 259 267 274 280 283 289 305 360 36 51 57 61 67 76 97 132 149 157 160 168 182 195 196 194 190 194 203 215 226 222 214 215
279 270 264 258 254 254 254 254 255 255 256 258 260 263 266 267 267 265 265 275 352 53 64 77 83 92 105 120 132 140 148 152 151 147 146 140 133 132 140 142 143 140 138
282 275 268 261 255 251 250 250 252 255 256 258 258 259 261 262 262 260 257 253 248 240 218 130 110 109 115 120 126 132 137 139 139 139 133 127 121 119 120 124 122 119 113
282 278 274 267 262 257 253 250 249 250 253 254 255 256 257 258 258 258 256 254 249 242 235 226 206 167 146 142 142 142 142 140 135 135 133 130 125 119 115 119 119 116 111
274 273 271 269 266 263 259 256 254 250 249 251 250 251 253 254 255 256 256 254 251 245 240 234 228 217 198 178 167 165 165 156 140 141 140 138 135 128 123 121 118 113 109
272 270 268 266 267 266 263 261 258 255 253 251 249 250 251 253 254 253 254 254 252 247 241 237 233 228 221 211 199 192 194 193 176 168 161 157 152 145 138 132 125 115 109
273 270 267 265 263 262 262 263 262 261 259 256 252 251 251 252 252 252 252 252 251 247 242 239 235 233 229 223 219 214 215 217 208 198 192 184 177 169 159 152 144 131 120
273 270 268 265 262 261 260 260 259 261 262 262 259 253 252 251 252 252 254 252 249 246 243 240 238 235 232 229 226 224 224 227 227 221 215 212 207 200 192 180 169 158 143
275 272 270 268 266 264 263 261 260 259 259 260 261 258 257 253 252 256 257 254 251 247 243 240 239 237 235 232 230 229 229 232 236 234 230 229 228 225 224 220 212 200 186
276 274 272 271 270 268 267 265 263 261 259 259 259 260 259 258 256 255 256 255 255 250 243 239 239 239 238 236 233 232 232 233 238 240 238 236 236 236 237 238 237 236 235
278 276 274 273 271 270 269 268 266 264 262 260 259 258 258 258 260 259 257 255 256 254 247 243 239 238 238 237 236 234 234 236 240 242 242 241 240 240 241 243 245 246 247
280 278 277 275 274 272 270 269 267 265 263 260 258 257 257 256 256 257 259 256 255 252 251 248 245 241 238 238 237 236 235 236 239 242 243 243 243 242 243 245 247 249 251
283 280 278 276 275 274 272 271 269 267 265 262 259 257 256 254 254 254 256 256 256 253 252 251 249 244 241 240 239 236 234 234 236 239 243 244 244 244 245 246 248 249 251
287 284 281 279 277 276 273 271 269 267 266 264 261 258 256 254 253 252 253 253 253 254 253 249 249 247 244 242 240 237 234 232 234 236 239 242 244 245 245 246 247 249 251
293 290 286 283 280 277 275 273 271 269 267 265 262 259 257 254 253 251 251 251 251 251 251 248 247 248 248 246 242 239 235 234 233 235 236 239 243 245 245 246 246 248 250
299 297 293 290 286 283 280 276 273 270 268 265 263 260 257 255 253 251 249 249 248 248 247 246 245 246 248 248 244 239 236 235 234 234 235 236 239 242 244 245 246 247 248
307 304 300 296 294 291 287 283 279 273 268 265 263 261 259 256 253 251 249 248 247 246 245 244 243 244 246 247 244 241 236 235 234 234 234 235 236 239 242 243 244 246 247
322 319 315 311 306 301 296 292 287 279 273 269 265 263 261 258 255 252 250 248 247 246 245 245 244 244 243 243 242 239 236 233 234 233 234 235 235 236 239 241 243 245 246
339 338 336 331 324 316 308 303 298 290 282 276 271 266 263 259 256 253 250 248 245 244 243 243 243 243 241 240 240 237 236 235 235 233 233 235 234 234 235 237 239 241 244
357 355 353 349 344 337 329 319 313 307 295 286 279 274 267 262 257 253 250 247 244 243 241 240 240 239 240 239 238 237 236 237 236 235 235 234 233 232 233 233 236 239 241
Height
5921 5919 5919 5918 5917 5917 5917 5916 5916 5915 5915 5914 5913 5913 5912 5912 5911 5911 5910 5910 5910 5910 5910 5910 5910 5910 5910 5910 5911 5912 5913 5914 5914 5915 5915 5915 5915 5915 5915 5914 5914 5913 5912
5922 5921 5920 5919 5919 5918 5918 5918 5917 5917 5916 5916 5915 5914 5914 5913 5912 5912 5911 5910 5910 5910 5909 5909 5909 5909 5908 5909 5909 5910 5911 5911 5912 5913 5913 5913 5913 5913 5913 5913 5912 5912 5911
5922 5921 5921 5920 5920 5919 5919 5919 5919 5918 5918 5917 5916 5915 5915 5914 5913 5912 5911 5911 5910 5909 5909 5908 5908 5907 5907 5907 5907 5908 5909 5909 5910 5910 5911 5911 5911 5911 5911 5911 5911 5910 5910
5922 5922 5921 5921 5921 5920 5920 5920 5919 5919 5918 5918 5917 5916 5916 5915 5914 5913 5912 5911 5910 5909 5908 5908 5907 5906 5906 5905 5906 5906 5907 5907 5908 5908 5908 5908 5909 5909 5909 5909 5909 5909 5909
5922 5921 5921 5921 5921 5921 5920 5920 5920 5919 5919 5918 5918 5917 5916 5915 5915 5914 5913 5912 5911 5910 5908 5908 5906 5906 5905 5905 5905 5905 5905 5906 5906 5906 5906 5906 5907 5907 5907 5907 5908 5908 5908
5921 5921 5920 5920 5920 5920 5920 5920 5919 5919 5918 5918 5917 5917 5916 5916 5915 5914 5913 5912 5911 5910 5909 5908 5907 5906 5905 5904 5904 5904 5905 5905 5905 5905 5905 5905 5905 5905 5906 5906 5906 5906 5907
5920 5919 5919 5919 5919 5919 5919 5918 5918 5918 5917 5917 5916 5916 5915 5915 5914 5914 5913 5913 5912 5911 5910 5908 5907 5906 5906 5905 5904 5904 5905 5905 5905 5905 5905 5905 5905 5905 5905 5905 5905 5906 5906
5918 5917 5917 5917 5916 5916 5916 5916 5916 5916 5915 5915 5915 5914 5914 5914 5913 5913 5913 5912 5912 5911 5910 5909 5908 5907 5907 5906 5905 5905 5905 5905 5905 5905 5905 5905 5905 5905 5905 5905 5905 5906 5906
5915 5915 5914 5914 5913 5913 5912 5912 5912 5912 5912 5912 5912 5912 5912 5912 5911 5911 5911 5911 5911 5911 5911 5910 5909 5908 5908 5907 5906 5906 5906 5905 5906 5906 5905 5905 5906 5906 5906 5906 5906 5906 5906
5913 5911 5911 5910 5909 5909 5909 5908 5908 5908 5908 5908 5909 5909 5909 5909 5909 5909 5909 5909 5910 5910 5910 5910 5909 5909 5908 5908 5907 5907 5907 5906 5906 5906 5906 5906 5906 5906 5906 5907 5907 5907 5907
5910 5908 5907 5906 5905 5905 5904 5904 5903 5903 5903 5904 5904 5905 5905 5906 5906 5906 5906 5907 5907 5908 5908 5908 5908 5908 5908 5908 5908 5908 5907 5907 5907 5907 5907 5907 5907 5907 5907 5908 5908 5907 5907
5905 5904 5903 5902 5901 5900 5899 5899 5898 5898 5898 5899 5899 5900 5901 5901 5902 5902 5902 5903 5904 5905 5905 5906 5907 5907 5907 5907 5907 5907 5907 5907 5907 5908 5908 5908 5908 5908 5908 5908 5908 5908 5908
5899 5898 5897 5896 5895 5895 5894 5893 5893 5893 5893 5894 5894 5895 5896 5896 5897 5897 5898 5899 5900 5901 5902 5903 5904 5904 5905 5905 5906 5907 5907 5907 5907 5908 5908 5908 5908 5908 5908 5909 5909 5909 5909
5892 5890 5889 5888 5887 5887 5887 5887 5887 5887 5887 5888 5888 5889 5889 5890 5891 5892 5893 5893 5894 5896 5897 5899 5900 5901 5902 5903 5904 5905 5905 5906 5906 5907 5907 5908 5908 5908 5908 5909 5909 5909 5909
5883 5881 5880 5879 5879 5879 5879 5880 5880 5881 5881 5882 5882 5882 5883 5884 5885 5886 5886 5887 5888 5889 5891 5893 5895 5897 5898 5899 5900 5902 5903 5903 5904 5905 5906 5907 5907 5907 5908 5908 5909 5909 5909
5874 5872 5871 5870 5869 5869 5869 5870 5871 5872 5873 5874 5875 5876 5876 5877 5878 5879 5880 5881 5882 5883 5885 5887 5889 5891 5893 5894 5896 5898 5899 5900 5901 5902 5903 5904 5905 5906 5907 5907 5908 5908 5908
5865 5863 5861 5860 5860 5859 5859 5859 5860 5861 5863 5865 5866 5867 5869 5870 5871 5872 5873 5874 5876 5877 5878 5880 5882 5885 5887 5889 5890 5892 5894 5896 5897 5898 5900 5901 5902 5903 5904 5905 5906 5906 5907
5856 5854 5852 5851 5850 5850 5849 5849 5849 5850 5851 5853 5855 5857 5859 5861 5862 5864 5866 5867 5869 5870 5872 5873 5875 5877 5880 5882 5884 5887 5889 5891 5893 5894 5895 5897 5898 5900 5901 5902 5903 5904 5904
5848 5846 5844 5842 5841 5840 5840 5839 5839 5839 5840 5842 5844 5846 5848 5850 5853 5855 5857 5859 5861 5863 5865 5866 5868 5870 5872 5875 5878 5880 5883 5885 5887 5889 5890 5892 5894 5895 5896 5898 5899 5900 5901
5840 5837 5835 5833 5832 5831 5830 5830 5829 5829 5830 5831 5832 5834 5836 5839 5842 5844 5847 5849 5852 5854 5856 5858 5860 5862 5864 5867 5870 5873 5876 5879 5881 5883 5885 5886 5888 5890 5892 5893 5895 5896 5897
5831 5829 5826 5825 5823 5821 5820 5820 5819 5819 5819 5820 5821 5823 5825 5828 5830 5833 5836 5839 5842 5845 5847 5849 5851 5854 5856 5859 5862 5865 5869 5872 5875 5877 5879 5881 5882 5884 5886 5888 5889 5891 5892
5824 5822 5819 5817 5815 5813 5811 5810 5809 5809 5809 5809 5810 5812 5813 5816 5819 5822 5825 5828 5831 5834 5837 5840 5843 5846 5848 5851 5853 5856 5860 5864 5867 5870 5873 5875 5877 5878 5880 5882 5884 5886 5887
5818 5815 5812 5810 5808 5805 5803 5801 5800 5799 5799 5799 5800 5801 5802 5804 5807 5810 5813 5816 5820 5823 5827 5830 5833 5837 5839 5842 5845 5848 5852 5856 5858 5862 5865 5868 5871 5873 5874 5876 5878 5880 5881
5814 5811 5807 5804 5802 5799 5797 5795 5793 5792 5791 5791 5791 5791 5792 5794 5796 5798 5802 5805 5808 5812 5816 5819 5823 5826 5830 5833 5836 5840 5843 5847 5850 5854 5857 5861 5864 5866 5868 5870 5872 5874 5875
5812 5808 5805 5801 5798 5795 5792 5790 5787 5785 5784 5783 5782 5782 5782 5783 5785 5787 5790 5793 5796 5800 5804 5808 5812 5816 5820 5824 5828 5831 5834 5838 5842 5846 5849 5853 5856 5859 5861 5864 5866 5868 5869
5811 5807 5804 5800 5796 5792 5789 5786 5783 5780 5778 5777 5775 5774 5774 5774 5774 5776 5779 5781 5785 5788 5792 5796 5800 5805 5809 5814 5818 5822 5825 5829 5833 5837 5840 5844 5847 5851 5854 5857 5859 5861 5863